TimeEST,TemperatureF,Dew PointF,Humidity,Sea Level PressureIn,VisibilityMPH,Wind Direction,Wind SpeedMPH,Gust SpeedMPH,PrecipitationIn,Events,Conditions,WindDirDegrees,DateUTC
12:52 AM,54.0,46.9,77,29.99,10.0,Calm,Calm,-,N/A,,Mostly Cloudy,0,2012-12-09 05:52:00
1:52 AM,55.0,46.9,74,29.99,10.0,SSW,4.6,-,N/A,,Scattered Clouds,200,2012-12-09 06:52:00
2:52 AM,55.9,48.0,75,29.99,10.0,SW,4.6,-,0.00,Rain,Light Rain,230,2012-12-09 07:52:00
3:52 AM,55.0,46.9,74,29.99,10.0,NW,3.5,-,0.00,,Mostly Cloudy,310,2012-12-09 08:52:00
4:52 AM,54.0,48.9,83,30.00,10.0,Calm,Calm,-,0.01,,Overcast,0,2012-12-09 09:52:00
5:28 AM,53.6,48.2,82,30.06,10.0,Calm,Calm,-,0.00,,Overcast,0,2012-12-09 10:28:00
5:37 AM,53.6,48.2,82,30.07,10.0,Variable,5.8,-,0.00,,Overcast,0,2012-12-09 10:37:00
5:52 AM,54.0,50.0,86,30.03,3.0,WSW,4.6,-,0.07,Rain,Heavy Rain,250,2012-12-09 10:52:00
6:12 AM,53.6,50.0,88,30.07,10.0,Calm,Calm,-,0.01,,Overcast,0,2012-12-09 11:12:00
6:52 AM,54.0,50.0,86,30.04,10.0,SSW,3.5,-,0.01,,Overcast,210,2012-12-09 11:52:00
7:42 AM,53.6,50.0,88,30.10,10.0,Calm,Calm,-,N/A,,Mostly Cloudy,0,2012-12-09 12:42:00
7:52 AM,54.0,50.0,86,30.06,10.0,Calm,Calm,-,N/A,,Mostly Cloudy,0,2012-12-09 12:52:00
8:37 AM,53.6,50.0,88,30.10,2.5,Calm,Calm,-,N/A,,Clear,0,2012-12-09 13:37:00
8:52 AM,55.9,51.1,84,30.06,10.0,Calm,Calm,-,N/A,,Scattered Clouds,0,2012-12-09 13:52:00
9:13 AM,55.4,51.8,88,30.11,10.0,Calm,Calm,-,N/A,,Overcast,0,2012-12-09 14:13:00
9:47 AM,55.4,51.8,88,30.11,10.0,SSE,3.5,-,N/A,,Overcast,150,2012-12-09 14:47:00
9:52 AM,55.9,51.1,84,30.06,10.0,Calm,Calm,-,N/A,,Overcast,0,2012-12-09 14:52:00
10:52 AM,59.0,51.1,75,30.03,10.0,Variable,3.5,-,N/A,,Overcast,0,2012-12-09 15:52:00
11:52 AM,61.0,51.1,70,30.01,10.0,SSE,5.8,-,N/A,,Mostly Cloudy,150,2012-12-09 16:52:00
1:52 PM,64.0,50.0,60,29.94,10.0,South,4.6,-,N/A,,Scattered Clouds,170,2012-12-09 18:52:00
2:52 PM,66.0,48.9,54,29.92,10.0,Variable,5.8,-,N/A,,Clear,0,2012-12-09 19:52:00
3:52 PM,64.9,48.9,56,29.93,10.0,Calm,Calm,-,N/A,,Overcast,0,2012-12-09 20:52:00
4:52 PM,64.9,48.9,56,29.94,10.0,SW,3.5,-,N/A,,Overcast,220,2012-12-09 21:52:00
5:52 PM,62.1,50.0,65,29.95,10.0,SW,6.9,-,0.00,Rain,Light Rain,230,2012-12-09 22:52:00
6:27 PM,60.8,51.8,72,30.01,10.0,Calm,Calm,-,0.03,Rain,Light Rain,0,2012-12-09 23:27:00
6:52 PM,60.1,51.1,72,29.96,10.0,South,4.6,-,0.04,Rain,Light Rain,190,2012-12-09 23:52:00
7:06 PM,59.0,51.8,77,30.01,10.0,South,6.9,-,0.00,Rain,Light Rain,180,2012-12-10 00:06:00
7:52 PM,59.0,51.1,75,29.95,10.0,South,6.9,-,0.00,,Overcast,170,2012-12-10 00:52:00
8:52 PM,59.0,48.9,69,29.92,10.0,South,11.5,18.4,N/A,,Mostly Cloudy,170,2012-12-10 01:52:00
9:52 PM,57.9,48.9,72,29.91,10.0,South,11.5,17.3,N/A,,Clear,170,2012-12-10 02:52:00
10:52 PM,57.9,48.9,72,29.88,10.0,SSE,10.4,-,N/A,,Clear,160,2012-12-10 03:52:00
11:52 PM,57.0,48.9,74,29.87,10.0,South,9.2,-,N/A,,Clear,180,2012-12-10 04:52:00